Location: Sawmill Trailhead
(33.5800°N, 116.4497°W)
Time: 08:09:58
(UTC-07:00)

Amateur Radio Satellites - All Passes

Search period start: 30 July 2014 07:39
Search period end: 31 July 2014 07:39
Location: Sawmill Trailhead, 33.5800°N, 116.4497°W

Satellite Date Start Highest point End Downlink Frequencies (MHz)
Time Altitude Azimuth
Hamsat 30 Jul 07:57:53 08:00:05 14° 292° (WNW) 08:02:17 145.90 MHz
PCSat 30 Jul 08:20:23 08:20:54 10° 46° (NE) 08:21:26 145.825 MHz
KITSAT 1 30 Jul 08:26:57 08:30:43 14° 321° (NW) 08:34:30 435.175 FM
JAS-2 30 Jul 08:27:40 08:31:16 17° 297° (WNW) 08:34:41 435.800 - 435.900 CW/SSB, 435.910 FM
Saudisat 1A 30 Jul 08:34:20 08:36:18 13° 312° (NW) 08:38:16 436.775 MHz
PANSAT 30 Jul 08:56:44 08:58:41 14° 202° (SSW) 09:00:38 not established
SO-67 30 Jul 09:03:05 09:03:39 10° 291° (WNW) 09:04:12 435.3500 MHz FM
Oscar 11 30 Jul 09:26:44 09:28:53 13° 93° (E) 09:31:00 145.825 FM, Beacon 2401.500 USB
Sapphire 30 Jul 09:26:47 09:31:46 36° 58° (ENE) 09:36:43 437.095 MHz 1200 baud AX-25 AFSK
HO-68 30 Jul 09:30:42 09:37:40 53° 102° (ESE) 09:44:35 435.675 MHz FM
PCSat 30 Jul 09:59:45 10:05:11 78° 64° (ENE) 10:10:35 145.825 MHz
UKube-1 30 Jul 10:17:23 10:21:43 70° 284° (WNW) 10:26:01 145.840 MHz, 145.915 MHz
Oscar 11 30 Jul 11:01:07 11:05:12 41° 286° (WNW) 11:09:16 145.825 FM, Beacon 2401.500 USB
Sapphire 30 Jul 11:10:35 11:14:57 25° 253° (WSW) 11:19:18 437.095 MHz 1200 baud AX-25 AFSK
HO-68 30 Jul 11:19:19 11:24:53 26° 297° (WNW) 11:30:28 435.675 MHz FM
FUNcube-1 30 Jul 11:26:38 11:30:46 60° 284° (WNW) 11:34:57 145.950 - 145.970 MHz USB
RS-15 30 Jul 11:30:47 11:39:05 25° 103° (ESE) 11:47:11 29.354 - 29.394 USB, Beacon 29.352 USB
PCSat 30 Jul 11:46:59 11:47:51 10° 258° (WSW) 11:48:43 145.825 MHz
SO-50 30 Jul 11:53:36 11:58:02 79° 117° (ESE) 12:02:33 436.795 FM
Oscar 19 30 Jul 12:18:17 12:20:24 13° 64° (ENE) 12:22:32 437.125 CW, 437.150 USB
Oscar 16 30 Jul 12:44:39 12:48:47 25° 69° (ENE) 12:52:56 437.025 USB, Beacon 2401.1428
ITAMSAT 1 30 Jul 13:09:32 13:13:10 20° 67° (ENE) 13:16:48 435.822 SSB
JAS-1B 30 Jul 13:19:54 13:27:07 28° 60° (ENE) 13:34:51 435.800 - 435.900 CW/SSB
Uribyol 2 30 Jul 13:27:31 13:32:02 31° 70° (ENE) 13:36:33 436.500 FM
AO-27 30 Jul 13:28:10 13:32:40 30° 70° (ENE) 13:37:11 436.795 MHz FM
SO-50 30 Jul 13:38:01 13:39:09 11° 314° (NW) 13:40:18 436.795 FM
RS-15 30 Jul 13:39:07 13:50:19 74° 300° (WNW) 14:01:16 29.354 - 29.394 USB, Beacon 29.352 USB
UOSAT-12 30 Jul 13:45:14 13:49:47 77° 117° (ESE) 13:54:27 437.025 FM, 437.400 FM
Oscar 19 30 Jul 13:54:05 13:59:08 65° 259° (WSW) 14:04:14 437.125 CW, 437.150 USB
AO-Echo 30 Jul 13:56:59 14:02:12 61° 74° (ENE) 14:07:27 ?
Gurwin Techsat 1B 30 Jul 14:00:19 14:04:31 25° 68° (ENE) 14:08:44 435.225 FM
Oscar 16 30 Jul 14:23:29 14:27:58 31° 263° (W) 14:32:28 437.025 USB, Beacon 2401.1428
KITSAT 1 30 Jul 14:23:45 14:30:53 33° 52° (NE) 14:37:56 435.175 FM
ITAMSAT 1 30 Jul 14:47:22 14:52:18 43° 261° (W) 14:57:15 435.822 SSB
Uribyol 2 30 Jul 15:07:11 15:11:27 26° 264° (W) 15:15:44 436.500 FM
AO-27 30 Jul 15:07:45 15:12:06 27° 263° (W) 15:16:28 436.795 MHz FM
JAS-1B 30 Jul 15:07:59 15:16:36 69° 259° (W) 15:26:23 435.800 - 435.900 CW/SSB
TMSAT-1 30 Jul 15:13:17 15:18:36 88° 257° (WSW) 15:23:55 436.925 FM
Saudisat 1A 30 Jul 15:23:29 15:26:28 18° 51° (NE) 15:29:25 436.775 MHz
UOSAT-12 30 Jul 15:28:45 15:30:29 12° 314° (NW) 15:32:14 437.025 FM, 437.400 FM
AO-7 30 Jul 15:30:09 15:37:51 43° 65° (ENE) 15:45:33 29.400 - 29.500 MHz
AO-Echo 30 Jul 15:38:47 15:41:17 13° 268° (W) 15:43:47 ?
Gurwin Techsat 1B 30 Jul 15:39:28 15:44:15 34° 262° (W) 15:49:04 435.225 FM
Uosat F 30 Jul 15:55:56 16:00:49 51° 73° (ENE) 16:05:42 435.120 FM
RS-15 30 Jul 15:57:22 16:04:51 20° 325° (NW) 16:12:21 29.354 - 29.394 USB, Beacon 29.352 USB
KITSAT 1 30 Jul 16:18:45 16:26:27 51° 250° (WSW) 16:34:07 435.175 FM
JAS-2 30 Jul 16:49:02 16:54:06 19° 64° (ENE) 16:58:58 435.800 - 435.900 CW/SSB, 435.910 FM
OPAL 30 Jul 16:57:40 17:02:47 89° 105° (ESE) 17:07:57 ?
Saudisat 1A 30 Jul 17:02:04 17:06:12 41° 246° (WSW) 17:10:19 436.775 MHz
JAS-1B 30 Jul 17:06:45 17:08:43 11° 276° (W) 17:10:44 435.800 - 435.900 CW/SSB
Hamsat 30 Jul 17:11:00 17:13:51 18° 69° (ENE) 17:16:43 145.90 MHz
AO-7 30 Jul 17:23:02 17:30:33 37° 261° (W) 17:38:09 29.400 - 29.500 MHz
Uosat F 30 Jul 17:37:08 17:39:49 14° 267° (W) 17:42:32 435.120 FM
JAS-2 30 Jul 18:30:33 18:38:24 78° 257° (WSW) 18:45:49 435.800 - 435.900 CW/SSB, 435.910 FM
Hamsat 30 Jul 18:45:59 18:49:35 28° 263° (W) 18:53:14 145.90 MHz
STRAND 1 30 Jul 19:23:59 19:29:04 67° 102° (ESE) 19:34:06 ?
SO-67 30 Jul 19:29:32 19:32:56 56° 260° (W) 19:36:21 435.3500 MHz FM
HO-68 30 Jul 19:55:52 20:01:36 27° 64° (ENE) 20:07:21 435.675 MHz FM
JAS-2 30 Jul 20:21:57 20:24:03 11° 270° (W) 20:26:07 435.800 - 435.900 CW/SSB, 435.910 FM
SO-50 30 Jul 20:29:23 20:33:21 26° 53° (NE) 20:37:21 436.795 FM
RS-15 30 Jul 20:34:09 20:42:37 24° 40° (NE) 20:51:13 29.354 - 29.394 USB, Beacon 29.352 USB
MaSat-1 30 Jul 20:46:02 20:49:55 81° 293° (WNW) 20:54:32 437.345 MHz
STRAND 1 30 Jul 21:05:41 21:07:37 12° 296° (WNW) 21:09:33 ?
UKube-1 30 Jul 21:08:45 21:13:03 59° 75° (ENE) 21:17:21 145.840 MHz, 145.915 MHz
ISS 30 Jul 21:22:42 21:25:04 18° 128° (SE) 21:27:27 145.800 FM
HO-68 30 Jul 21:41:58 21:48:53 51° 259° (W) 21:55:49 435.675 MHz FM
Oscar 11 30 Jul 21:51:44 21:56:02 89° 257° (WSW) 22:00:21 145.825 FM, Beacon 2401.500 USB
SO-50 30 Jul 22:09:40 22:13:54 32° 248° (WSW) 22:18:10 436.795 FM
FUNcube-1 30 Jul 22:18:58 22:23:14 63° 76° (ENE) 22:27:26 145.950 - 145.970 MHz USB
UOSAT-12 30 Jul 22:19:18 22:23:05 23° 52° (NE) 22:26:49 437.025 FM, 437.400 FM
RS-15 30 Jul 22:45:27 22:56:36 87° 63° (ENE) 23:08:13 29.354 - 29.394 USB, Beacon 29.352 USB
PCSat 30 Jul 22:56:17 22:59:46 18° 105° (ESE) 23:03:15 145.825 MHz
ISS 30 Jul 22:58:34 23:01:35 32° 322° (NW) 23:04:38 145.800 FM
UOSAT-12 30 Jul 23:59:02 00:03:16 34° 248° (WSW) 00:07:25 437.025 FM, 437.400 FM
Sapphire 31 Jul 00:04:06 00:09:28 76° 113° (ESE) 00:14:52 437.095 MHz 1200 baud AX-25 AFSK
PCSat 31 Jul 00:37:29 00:42:42 50° 299° (WNW) 00:47:58 145.825 MHz
RS-15 31 Jul 01:00:30 01:07:35 19° 259° (W) 01:14:51 29.354 - 29.394 USB, Beacon 29.352 USB
Oscar 16 31 Jul 01:02:02 01:03:57 12° 92° (E) 01:05:51 437.025 USB, Beacon 2401.1428
Uribyol 2 31 Jul 01:45:30 01:48:22 15° 93° (E) 01:51:14 436.500 FM
AO-27 31 Jul 01:46:31 01:49:19 15° 93° (E) 01:52:06 436.795 MHz FM
Sapphire 31 Jul 01:50:41 01:53:27 14° 310° (NW) 01:56:15 437.095 MHz 1200 baud AX-25 AFSK
AO-Echo 31 Jul 02:09:24 02:13:33 26° 96° (E) 02:17:34 ?
Oscar 19 31 Jul 02:09:42 02:14:50 63° 101° (ESE) 02:19:58 437.125 CW, 437.150 USB
Gurwin Techsat 1B 31 Jul 02:21:53 02:24:13 13° 92° (E) 02:26:32 435.225 FM
Oscar 16 31 Jul 02:38:31 02:43:38 63° 286° (WNW) 02:48:44 437.025 USB, Beacon 2401.1428
JAS-1B 31 Jul 03:00:11 03:08:59 55° 98° (E) 03:16:20 435.800 - 435.900 CW/SSB
ITAMSAT 1 31 Jul 03:04:04 03:09:16 86° 284° (WNW) 03:14:25 435.822 SSB
Uribyol 2 31 Jul 03:23:06 03:28:05 51° 287° (WNW) 03:33:03 436.500 FM
AO-27 31 Jul 03:24:03 03:29:05 53° 287° (WNW) 03:34:05 436.795 MHz FM
PANSAT 31 Jul 03:31:09 03:34:20 25° 166° (SSE) 03:37:32 not established
TMSAT-1 31 Jul 03:33:25 03:38:34 52° 100° (E) 03:43:42 436.925 FM
AO-7 31 Jul 03:38:22 03:42:59 16° 93° (E) 03:47:33 29.400 - 29.500 MHz
AO-Echo 31 Jul 03:48:02 03:52:13 27° 291° (WNW) 03:56:17 ?
Oscar 19 31 Jul 03:51:11 03:53:36 13° 296° (WNW) 03:56:01 437.125 CW, 437.150 USB
Gurwin Techsat 1B 31 Jul 03:59:17 04:04:31 62° 286° (WNW) 04:09:44 435.225 FM
Uosat F 31 Jul 04:08:32 04:12:22 22° 96° (E) 04:16:11 435.120 FM
OPAL 31 Jul 04:08:53 04:13:49 81° 255° (WSW) 04:18:47 ?
KITSAT 1 31 Jul 04:47:28 04:54:42 37° 107° (ESE) 05:01:55 435.175 FM
JAS-1B 31 Jul 04:51:19 04:58:49 30° 299° (WNW) 05:05:25 435.800 - 435.900 CW/SSB
MaSat-1 31 Jul 05:10:12 05:12:24 13° 52° (NE) 05:14:33 437.345 MHz
PANSAT 31 Jul 05:10:34 05:14:11 38° 178° (S) 05:17:47 not established
TMSAT-1 31 Jul 05:14:47 05:18:01 17° 295° (WNW) 05:21:14 436.925 FM
AO-7 31 Jul 05:28:09 05:36:31 85° 288° (WNW) 05:44:48 29.400 - 29.500 MHz
Saudisat 1A 31 Jul 05:29:31 05:29:42 10° 107° (ESE) 05:29:53 436.775 MHz
ISS 31 Jul 05:30:11 05:33:24 41° 40° (NE) 05:36:35 145.800 FM
Uosat F 31 Jul 05:46:41 05:51:10 34° 289° (WNW) 05:55:37 435.120 FM
JAS-2 31 Jul 05:48:24 05:51:12 14° 90° (E) 05:53:55 435.800 - 435.900 CW/SSB, 435.910 FM
Hamsat 31 Jul 06:34:55 06:39:13 65° 101° (E) 06:43:32 145.90 MHz
STRAND 1 31 Jul 06:35:50 06:40:54 64° 74° (ENE) 06:46:00 ?
KITSAT 1 31 Jul 06:42:18 06:49:53 43° 304° (NW) 06:57:32 435.175 FM
MaSat-1 31 Jul 06:45:10 06:50:25 80° 249° (WSW) 06:55:12 437.345 MHz
PANSAT 31 Jul 06:50:38 06:54:03 30° 191° (S) 06:57:27 not established
SO-67 31 Jul 06:58:56 07:00:32 13° 94° (E) 07:02:07 435.3500 MHz FM
Saudisat 1A 31 Jul 07:04:21 07:08:43 61° 300° (WNW) 07:13:06 436.775 MHz
ISS 31 Jul 07:07:57 07:09:49 14° 233° (SW) 07:11:41 145.800 FM
AO-7 31 Jul 07:23:29 07:28:04 16° 305° (NW) 07:32:39 29.400 - 29.500 MHz
